Torna al catalogo

STARLINK-36990

AttivoComunicazioniVLEO
NORAD 68068·PAYLOAD·🇺🇸 United States

Lanciato Mar 2, 2026 da Vandenberg Space Force Base

Loading…

Prossimi Passaggi (prossime 24 ore)

TLE

AggiornatoSource: CelesTrak SupGP

Epoca: Sep 15, 2026, 03:51 UTC

1 68068C 26041AE  26258.16090278 -.00056455  00000+0 -16678-2 0  2581
2 68068  53.1579 246.3653 0001353  83.2028 341.2898 15.34421582    15

Traccia STARLINK-36990 in tempo reale con AllMySat

Download on the App Store